CW7200 Weather Reports


time (UTC)temp
C
wind
direction
speed
KPH
gust
KPH
rain 1hr
cm
rain 24hr
cm
rain mn
cm
humidity
%
barometer
mb
20260503220903 11 351 0.0 1.6 0.00 0.00 0.00 77 1016.4
20260503220233 12 0 0.0 0.0 0.00 0.00 0.00 76 1016.4
20260503215404 12 0 0.0 0.0 0.00 0.00 0.00 77 1016.4
20260503214504 12 0 0.0 0.0 0.00 0.00 0.00 78 1016.3
20260503213603 12 0 0.0 0.0 0.00 0.00 0.00 76 1016.4
20260503212703 12 0 0.0 0.0 0.00 0.00 0.00 75 1016.3
20260503211803 12 333 1.6 9.7 0.00 0.00 0.00 74 1016.4
20260503210903 12 328 0.0 8.0 0.00 0.00 0.00 76 1016.4
20260503210004 12 326 1.6 8.0 0.00 0.00 0.00 75 1016.4
20260503205403 12 324 3.2 8.0 0.00 0.00 0.00 75 1016.4
20260503204717 12 323 3.2 8.0 0.00 0.00 0.00 76 1016.4
20260503203603 13 322 0.0 8.0 0.00 0.00 0.00 74 1016.4
20260503202703 13 322 1.6 8.0 0.00 0.00 0.00 75 1016.5
20260503202020 13 322 0.0 6.4 0.00 0.00 0.00 74 1016.5
20260503200904 13 318 1.6 9.7 0.00 0.00 0.00 75 1016.4
20260503200004 13 0 0.0 0.0 0.00 0.00 0.00 75 1016.5
20260503195403 13 0 0.0 0.0 0.00 0.00 0.00 74 1016.5
20260503194504 13 0 0.0 0.0 0.00 0.00 0.00 75 1016.5
20260503193603 13 0 0.0 0.0 0.00 0.00 0.00 76 1016.5
20260503192703 13 0 0.0 0.0 0.00 0.00 0.00 76 1016.4
20260503191803 14 0 0.0 0.0 0.00 0.00 0.00 75 1016.4
20260503191118 14 0 0.0 0.0 0.00 0.00 0.00 74 1016.3
20260503190004 14 0 0.0 0.0 0.00 0.00 0.00 73 1016.3
20260503185403 15 0 0.0 0.0 0.00 0.00 0.00 72 1016.2
20260503184503 15 0 0.0 0.0 0.00 0.00 0.00 71 1016.1
20260503183603 16 0 0.0 0.0 0.00 0.00 0.00 69 1016.0
20260503182704 16 0 0.0 0.0 0.00 0.00 0.00 67 1015.8
20260503181804 17 0 0.0 0.0 0.00 0.00 0.00 67 1015.7
20260503180903 18 0 0.0 0.0 0.00 0.00 0.00 64 1015.6
20260503180005 18 0 0.0 0.0 0.00 0.00 0.00 61 1015.5
20260503175403 20 0 0.0 0.0 0.00 0.00 0.00 59 1015.5
20260503174720 21 0 0.0 0.0 0.00 0.00 0.00 56 1015.4
20260503173603 22 0 0.0 0.0 0.00 0.00 0.00 51 1015.3
20260503172703 22 0 0.0 0.0 0.00 0.00 0.00 50 1015.4
20260503171803 22 150 0.0 6.4 0.00 0.00 0.00 49 1015.3
20260503170904 22 165 1.6 8.0 0.00 0.00 0.00 48 1015.2
20260503150903 24 115 3.2 14.5 0.00 0.00 0.00 46 1015.4
20260503150217 24 126 3.2 14.5 0.00 0.00 0.00 46 1015.5
20260503130904 24 146 3.2 11.3 0.00 0.00 0.00 44 1016.4
20260503080903 19 0 0.0 0.0 0.00 0.00 0.00 63 1018.5
20260503072704 17 0 0.0 0.0 0.00 0.00 0.00 64 1018.4
20260503071803 17 0 0.0 0.0 0.00 0.00 0.00 66 1018.4
20260503070904 17 0 0.0 0.0 0.00 0.00 0.00 69 1018.4
20260503060218 12 156 0.0 6.4 0.00 0.00 0.00 76 1018.2
20260503054722 11 135 4.8 8.0 0.00 0.00 0.00 79 1018.1
20260503053603 10 1 0.0 6.4 0.00 0.00 0.00 81 1018.0
20260503052704 10 0 0.0 0.0 0.00 0.00 0.00 79 1018.0
20260503051804 10 0 0.0 0.0 0.00 0.00 0.00 79 1017.9
20260503050904 10 0 0.0 0.0 0.00 0.00 0.00 79 1018.0
20260503050004 10 360 0.0 3.2 0.00 0.00 0.00 78 1018.0
20260503045404 10 359 1.6 8.0 0.00 0.00 0.00 78 1017.9
20260503044717 10 359 4.8 8.0 0.00 0.00 0.00 78 1018.0
20260503043603 10 358 1.6 11.3 0.00 0.00 0.00 78 1018.0
20260503042704 10 359 3.2 9.7 0.00 0.00 0.00 78 1017.9
20260503041804 10 358 4.8 9.7 0.00 0.00 0.00 78 1018.0
20260503040904 10 357 4.8 11.3 0.00 0.00 0.00 78 1018.0
20260503040003 9 356 1.6 9.7 0.00 0.00 0.00 79 1017.9
20260503035621 9 356 1.6 8.0 0.00 0.00 0.00 79 1017.9
20260503034503 9 357 3.2 11.3 0.00 0.00 0.00 79 1017.9
20260503033603 9 357 1.6 8.0 0.00 0.00 0.00 78 1017.8
20260503032704 10 358 4.8 9.7 0.00 0.00 0.00 78 1017.8
20260503031804 8 357 4.8 11.3 0.00 0.00 0.00 82 1017.9
20260503030904 7 356 1.6 6.4 0.00 0.00 0.00 82 1018.0
20260503030004 8 356 1.6 6.4 0.00 0.00 0.00 79 1018.0
20260503025404 10 356 1.6 9.7 0.00 0.00 0.00 78 1018.0
20260503024504 10 359 6.4 9.7 0.00 0.00 0.00 78 1018.0
20260503023604 10 359 1.6 8.0 0.00 0.00 0.00 78 1018.1
20260503022703 10 358 3.2 9.7 0.00 0.00 0.00 77 1018.1
20260503021803 10 358 3.2 9.7 0.00 0.00 0.00 76 1018.2
20260503020903 11 2 0.0 8.0 0.00 0.00 0.00 76 1018.3
20260503020004 11 2 3.2 8.0 0.00 0.00 0.00 76 1018.4
20260503015617 10 2 3.2 8.0 0.00 0.00 0.00 76 1018.3
20260503014504 10 2 0.0 3.2 0.00 0.00 0.00 78 1018.4
20260503013822 10 2 1.6 4.8 0.00 0.00 0.00 78 1018.4
20260503012919 10 2 1.6 8.0 0.00 0.00 0.00 78 1018.4
20260503011804 10 2 1.6 4.8 0.00 0.00 0.00 79 1018.5
20260503011119 10 2 1.6 6.4 0.00 0.00 0.00 79 1018.5
20260503010004 10 2 3.2 8.0 0.00 0.00 0.00 79 1018.6
20260503005403 10 2 4.8 11.3 0.00 0.00 0.00 79 1018.6
20260503004504 10 2 1.6 8.0 0.00 0.00 0.00 78 1018.7
20260503003603 10 2 1.6 8.0 0.00 0.00 0.00 78 1018.8
20260503002703 10 2 1.6 9.7 0.00 0.00 0.00 78 1018.8
20260503001804 10 2 0.0 4.8 0.00 0.00 0.00 77 1018.8
20260503000903 10 2 0.0 6.4 0.00 0.00 0.00 77 1018.8
20260503000004 10 2 1.6 6.4 0.00 0.00 0.00 76 1018.9
20260502235404 10 2 1.6 6.4 0.00 0.00 0.00 76 1018.9
20260502234504 11 2 4.8 8.0 0.00 0.00 0.00 75 1019.0
20260502233603 11 2 1.6 6.4 0.00 0.00 0.00 74 1019.0
20260502232704 11 2 1.6 6.4 0.00 0.00 0.00 73 1019.1
20260502231804 11 2 1.6 6.4 0.00 0.00 0.00 72 1019.1
20260502230904 11 2 0.0 8.0 0.00 0.00 0.00 72 1019.2
20260502230004 11 2 1.6 6.4 0.00 0.00 0.00 72 1019.3
20260502225403 11 2 1.6 8.0 0.00 0.00 0.00 72 1019.3
20260502224504 11 2 1.6 8.0 0.00 0.00 0.00 73 1019.5
20260502223603 11 2 3.2 8.0 0.00 0.00 0.00 73 1019.4
20260502222703 11 2 6.4 9.7 0.00 0.00 0.00 72 1019.5
20260502222018 11 2 4.8 9.7 0.00 0.00 0.00 72 1019.5